Weather in Makassar

Indonesia     5°10′04″S   119°27′08″E
temp.,
°C
wind,
m/s
gust,
m/s
humid.,
%
clouds,
%
prec.,
mm/h
press.,
hPa
HPBL,
m
15 august, mon
mon1523:00+24e22865 0.0 101124
02:00+23ene11840 0.0 101019
05:00+22e22828 0.0 101020
08:00+26e1171100 0.0 1011182
11:00+30w2253100 0.0 10101063
14:00+32w535313 0.0 10071237
17:00+29nnw456599 0.1 1007374
20:00+25ese3374100 0.1 101064
16 august, tue
tue1623:00+23ene2273100 0.0 101130
02:00+23ese2168100 0.0 101021
05:00+23e2268100 0.0 101019
08:00+25e1162100 0.0 101296
11:00+30sw224816 0.0 1011946
14:00+31wsw535286 0.0 10081097
17:00+29nw2263100 0.0 1008410
20:00+25ne2274100 0.0 101138
17 august, wed
wed1723:00+24e117345 0.0 101223
02:00+23sse117375 0.0 101014
05:00+24ese1174100 0.0 100919
08:00+26ese117050 0.0 1012192
11:00+28nne2360100 0.0 1012555
14:00+30wnw2147100 0.0 1009798
17:00+26sse1269100 0.1 100967
20:00+24e227299 0.1 101128
18 august, thu
thu1823:00+24ne237283 0.0 101263
02:00+23e117499 0.0 101019
05:00+23se117575 0.0 101015
08:00+26ene116868 0.0 1011201
11:00+28w216194 0.0 1011715
14:00+30wsw325473 0.0 10081182
17:00+29wnw33605 0.0 1008444
20:00+25ene22735 0.0 101020
19 august, fri
fri1923:00+23ene127544 0.0 101021
02:00+23e117463 0.0 100820
05:00+23e117290 0.0 100914
08:00+26e11667 0.0 1010212
11:00+31wsw224949 0.0 10091249
14:00+31w5351100 0.0 10061289
17:00+30nnw336053 0.0 1006374
20:00+25e2273100 0.0 100837